Wind_Speed
28 28 27 26 25 26 28 30 31 31 31 31 31 31 31 30 29 29 28 28 27 27 27 26 26 27 27 25 24 25 26 26 24 23 23 26 26 24 23 22 21 20 19 18 17 16 15 14 13 13 12 12 11 10 10 9 8 7 7 7 7 7 6
30 27 26 26 25 25 27 29 29 30 30 31 32 31 31 30 29 28 27 27 27 26 26 26 25 26 27 26 25 25 26 26 26 25 24 24 25 26 24 23 22 21 19 18 18 17 16 15 14 13 12 12 11 11 10 10 9 8 7 7 7 7 7
31 27 25 25 25 25 27 28 28 30 31 32 32 31 30 30 27 26 27 26 26 25 25 26 25 25 26 26 26 26 26 26 26 26 25 24 23 24 24 23 23 22 21 20 19 19 17 16 15 14 13 13 12 11 11 10 10 8 7 7 7 7 8
30 27 26 23 24 26 26 26 26 28 31 31 30 29 29 29 25 24 26 25 25 25 25 26 26 25 26 27 27 27 27 26 26 25 25 24 23 23 23 23 23 23 22 21 20 20 18 17 17 16 15 14 13 12 11 11 10 9 8 7 7 7 8
30 28 27 23 24 28 26 25 26 27 28 29 29 29 29 28 25 24 25 25 24 25 25 25 25 25 25 27 27 27 27 27 26 25 25 25 24 24 24 23 23 23 22 22 21 21 19 18 18 17 17 16 15 14 13 12 11 10 9 8 8 7 7
32 30 29 25 22 25 25 24 26 26 27 28 28 29 30 29 27 25 25 25 25 25 26 27 27 26 26 26 27 28 28 28 28 27 26 25 25 25 24 23 23 23 23 23 22 21 21 19 18 18 17 17 17 16 15 14 13 12 10 9 8 8 7
34 33 30 25 21 22 23 22 25 27 27 29 28 28 30 30 28 26 25 25 26 27 29 30 29 28 27 26 26 27 28 28 28 28 28 27 26 26 25 24 24 24 24 24 23 22 22 21 20 19 18 18 18 18 17 16 15 14 13 11 10 9 8
32 32 27 24 22 21 21 21 23 27 28 30 30 30 31 31 29 27 27 26 27 28 30 31 30 28 27 27 27 27 27 27 27 28 28 28 28 27 26 25 25 24 25 25 25 24 23 21 20 20 19 19 18 18 18 18 17 16 15 14 12 11 10
25 27 24 21 23 24 22 21 22 27 30 30 30 31 30 31 30 29 28 27 27 29 30 30 30 28 27 28 28 27 27 26 26 27 28 29 30 29 28 26 25 25 25 26 25 25 24 23 21 20 21 21 20 19 19 19 19 18 17 15 14 12 11
23 23 24 24 28 27 24 21 23 26 29 29 30 31 30 31 31 30 29 28 27 28 29 29 29 28 27 27 27 28 28 27 26 27 27 28 29 29 29 28 27 26 26 26 26 26 25 24 22 21 20 22 22 21 20 20 20 19 18 17 16 15 13
31 25 25 26 29 30 25 22 24 27 27 28 30 31 30 30 31 31 30 28 27 27 28 29 29 28 26 26 26 28 28 28 27 27 28 28 28 29 29 29 28 28 27 26 27 27 26 25 24 22 20 21 22 22 21 20 20 20 19 18 17 16 15
31 26 26 25 26 29 26 23 25 26 26 26 28 29 30 30 31 31 29 28 28 28 28 29 29 29 27 25 26 27 28 28 28 28 28 28 27 27 27 28 29 29 28 27 26 26 26 25 24 23 21 20 21 22 21 20 21 21 20 19 19 18 17
22 27 33 33 31 28 23 23 25 26 26 25 26 26 26 28 31 30 29 28 29 28 28 29 29 28 28 26 25 26 26 27 27 28 28 28 27 26 26 27 28 28 28 28 27 27 26 26 24 22 21 20 20 21 20 20 21 21 22 21 20 20 19
21 34 40 40 42 37 28 25 25 24 25 26 26 23 22 26 30 30 28 27 29 30 29 29 29 28 28 27 26 25 25 25 25 26 27 27 28 27 27 27 27 27 27 27 28 28 27 26 24 22 21 20 20 20 20 21 22 22 23 23 22 21 20
24 34 37 36 42 42 35 32 30 25 24 25 25 23 21 23 27 29 29 28 29 30 29 29 30 29 29 28 26 23 22 22 23 24 26 27 28 28 28 27 26 26 26 26 28 28 27 26 24 22 22 21 21 20 20 22 22 22 23 23 23 22 20
20 24 26 27 33 40 41 41 40 36 32 30 28 25 22 23 26 27 27 28 30 31 29 29 30 29 28 27 24 23 22 22 22 23 24 26 27 27 27 27 26 26 26 26 26 27 27 27 25 23 22 21 21 22 22 22 22 22 22 23 23 22 21
24 23 21 21 27 39 46 46 44 42 38 35 34 31 28 28 29 29 27 26 27 30 30 29 30 30 29 26 24 24 24 23 23 23 23 24 24 25 26 26 26 26 26 26 26 27 27 28 27 24 23 22 22 22 22 22 21 21 22 22 23 23 23
26 25 22 20 23 33 43 47 46 43 40 39 37 34 33 31 31 32 32 29 28 31 34 34 33 32 31 29 28 27 25 24 24 24 24 23 23 24 24 25 25 25 26 26 26 26 27 28 28 25 23 23 23 23 22 22 21 21 21 22 23 24 24
20 21 20 19 20 26 35 41 45 44 42 42 40 37 36 34 32 31 32 32 31 33 36 39 39 39 37 33 31 30 27 26 25 24 24 24 24 24 24 25 25 24 25 25 25 26 27 27 28 27 25 24 24 23 23 22 21 21 21 21 22 23 24
14 15 15 15 16 19 20 25 36 44 44 43 42 39 36 34 32 33 33 32 31 32 34 37 39 41 40 37 34 31 30 29 26 25 24 24 25 25 26 26 25 23 24 24 24 25 26 27 28 28 27 25 24 24 23 22 22 21 21 21 22 23 23
11 10 11 11 13 14 10 9 19 32 39 43 42 40 37 35 35 37 37 32 30 31 32 32 33 34 35 36 36 33 32 31 29 27 26 25 26 26 27 27 26 24 24 24 24 24 24 25 27 28 28 27 25 24 24 23 22 22 21 21 21 21 22
11 8 8 8 9 11 10 9 9 13 23 34 39 38 38 39 39 40 38 34 32 30 28 28 29 30 32 34 35 34 32 31 30 29 27 27 27 27 27 27 27 27 25 24 24 23 24 25 26 27 28 29 27 26 25 24 23 23 22 21 20 20 20
17 12 9 9 9 9 8 8 9 9 12 20 28 32 35 37 39 39 38 36 35 33 30 29 29 30 33 34 34 33 32 31 30 30 29 29 28 27 27 27 28 28 28 27 25 24 24 25 26 26 27 28 29 28 26 25 24 24 24 23 21 21 21
27 22 17 14 13 11 8 6 7 9 12 15 19 23 27 31 34 37 38 37 36 34 33 34 32 32 34 36 34 33 32 31 31 31 30 30 29 29 28 28 28 29 29 29 27 25 24 24 25 26 26 27 29 29 28 26 25 25 25 24 23 23 22
34 30 24 20 18 16 13 10 7 8 12 15 17 20 24 28 31 34 37 38 37 35 35 37 36 34 35 37 36 34 33 32 32 32 32 31 30 30 30 29 28 28 29 30 30 28 26 25 25 26 27 27 28 29 29 28 27 26 25 24 24 24 24
34 32 28 25 23 21 18 14 10 9 11 14 17 19 23 27 30 33 36 37 38 37 37 36 35 34 35 37 38 38 37 35 34 33 33 32 32 32 32 31 30 30 30 30 31 31 30 28 27 26 27 28 28 29 30 30 29 28 26 25 25 25 25
35 33 31 29 27 25 23 18 14 12 12 15 18 20 22 25 29 34 37 38 39 40 38 35 33 35 37 39 40 41 40 38 37 36 35 34 34 34 34 34 33 32 31 31 31 31 32 31 29 27 26 28 29 30 31 30 30 29 28 27 26 25 25
37 36 34 32 30 28 26 24 19 16 15 16 19 22 24 26 29 33 37 40 40 40 39 37 36 37 39 41 42 43 42 40 39 38 37 37 37 37 37 36 35 34 33 32 32 31 32 33 32 29 27 27 29 31 31 30 30 29 29 27 27 26 26
39 40 38 35 33 31 29 28 24 20 18 18 20 23 25 28 29 31 36 39 39 38 39 40 40 40 41 43 45 45 44 41 39 39 40 39 39 39 39 38 38 36 35 34 33 32 33 33 33 32 29 28 29 31 31 31 30 30 29 28 28 28 28
36 38 39 37 34 33 33 31 29 26 23 21 22 24 27 29 30 32 35 36 37 38 40 41 41 40 40 42 45 46 44 42 40 40 40 40 40 40 41 41 40 40 38 35 34 33 33 34 34 34 32 30 29 30 31 31 31 30 29 29 29 29 29
33 34 38 39 36 35 34 33 32 31 27 24 24 26 28 29 31 33 34 34 36 39 41 42 42 40 39 40 43 45 44 42 41 40 40 40 41 41 42 42 42 42 41 37 35 35 34 34 34 35 34 32 30 29 29 30 30 30 29 29 29 29 28
31 30 35 38 38 37 35 34 33 33 31 28 27 28 29 30 31 32 33 33 35 38 40 42 42 41 39 38 39 41 41 41 40 39 39 40 41 41 42 42 43 44 43 40 37 35 34 33 34 34 34 33 30 28 27 28 28 29 28 27 27 27 26
29 29 32 35 36 36 35 34 34 35 34 32 30 29 31 32 31 32 33 34 36 37 39 41 42 41 40 38 37 37 38 38 38 39 39 40 41 42 42 43 43 45 44 41 38 36 34 32 32 32 33 33 30 27 25 25 26 27 27 27 26 26 25
28 29 31 33 34 34 33 32 33 35 35 35 33 32 32 33 32 32 32 34 36 38 39 41 43 43 42 41 39 38 38 39 39 39 40 40 41 41 42 43 44 44 43 41 39 38 35 31 29 29 29 29 27 25 24 23 24 24 24 24 23 23 23
29 30 31 32 32 32 31 31 33 35 36 36 36 34 34 35 34 33 33 35 37 39 40 43 46 46 44 43 43 42 42 42 42 43 42 41 41 41 42 44 44 44 42 41 41 39 35 31 26 24 23 23 24 24 24 23 21 19 18 18 18 19 20
30 30 30 31 31 29 29 30 32 34 36 36 37 37 36 36 36 35 34 35 37 40 42 44 48 49 46 44 44 45 46 46 46 46 45 42 41 42 44 45 45 43 42 41 41 39 36 32 28 24 23 23 23 22 21 19 17 15 14 15 16 17 17
32 30 28 29 30 28 27 29 30 33 36 37 37 37 37 38 39 38 36 36 39 42 42 44 47 49 48 46 46 47 48 48 48 49 48 46 45 45 46 46 45 43 41 41 41 40 38 34 30 28 28 27 25 24 22 20 19 18 17 16 17 18 18
32 30 26 26 28 27 26 26 27 30 34 36 38 39 38 39 40 39 37 38 40 41 42 44 47 48 48 49 49 49 51 52 52 52 53 51 48 47 48 48 46 43 41 41 41 40 39 35 31 30 30 29 28 27 27 25 23 23 22 21 21 21 22
Wind_Direction
212 214 217 216 215 217 218 217 216 215 217 218 218 218 218 216 212 209 209 211 211 212 216 219 219 218 220 218 214 216 218 220 221 219 215 215 217 215 212 211 211 211 209 206 203 200 199 197 193 193 193 191 191 191 190 190 189 186 183 178 172 169 165
213 214 218 220 217 217 219 218 218 218 217 219 219 218 218 216 213 208 206 207 206 207 213 218 220 219 220 220 217 215 217 220 221 222 219 217 217 218 217 215 213 214 213 211 209 207 206 204 199 198 200 198 197 195 192 192 196 196 193 189 184 180 173
212 214 220 223 220 219 219 218 219 220 220 220 219 217 216 218 215 208 205 203 202 204 211 217 219 219 218 219 219 217 217 220 222 223 223 221 220 220 220 220 217 215 215 214 214 214 212 210 207 205 204 205 204 200 196 195 196 199 200 198 195 191 186
209 215 221 223 223 220 219 219 219 220 221 222 221 217 216 219 217 209 206 203 200 202 207 213 217 218 218 218 220 219 218 219 222 223 223 224 224 223 222 221 219 218 217 215 216 217 217 215 213 211 209 209 210 207 203 199 197 199 200 202 202 199 196
208 216 218 218 222 219 218 220 218 219 221 221 222 219 217 220 218 211 206 202 200 200 204 212 217 218 218 217 218 220 220 220 222 223 223 223 224 225 224 221 220 220 220 218 217 218 220 219 217 214 212 212 212 211 207 202 200 201 200 202 203 203 203
211 214 214 213 218 219 219 221 218 218 220 221 222 220 218 220 218 210 205 203 199 197 199 207 214 217 217 216 217 219 221 221 221 222 223 223 223 224 225 224 222 222 222 222 220 219 220 221 220 218 215 213 213 213 210 205 203 203 203 203 204 207 211
220 217 215 213 215 218 220 222 220 218 220 221 221 218 217 218 217 210 205 202 198 197 199 204 210 214 214 213 215 218 220 221 221 222 222 223 223 223 224 225 224 222 223 225 225 223 221 220 220 220 219 216 215 214 212 208 206 206 206 206 208 211 216
224 217 212 212 218 221 219 220 218 216 217 218 217 217 216 216 216 212 207 202 198 198 200 203 209 214 213 211 212 215 219 221 222 222 222 222 224 222 222 223 224 223 224 225 227 228 227 224 219 216 217 219 217 214 213 211 210 209 207 206 209 212 215
218 217 220 226 230 225 217 217 215 212 214 215 215 217 216 216 216 215 210 204 201 201 202 203 206 212 215 212 210 212 216 220 222 223 223 223 224 223 221 222 223 224 224 226 228 229 232 231 226 218 214 218 221 218 214 212 212 212 207 204 207 210 212
219 227 232 240 240 226 212 210 209 209 213 215 216 218 216 216 217 217 213 208 205 204 203 203 204 209 215 215 211 210 213 216 219 222 223 223 223 224 222 221 222 224 225 226 228 230 231 233 233 226 216 215 220 222 218 213 211 213 209 205 207 210 213
214 226 230 235 233 218 209 211 211 212 216 218 220 220 218 217 218 220 218 214 211 208 204 203 203 205 212 215 212 210 211 214 216 219 221 222 223 223 223 223 222 223 225 226 228 230 232 232 233 232 223 217 218 223 223 218 213 214 213 210 210 213 216
211 223 227 228 222 210 209 218 220 222 225 226 226 225 222 221 220 222 223 221 218 213 207 204 203 204 209 213 213 212 212 213 215 218 220 221 222 223 223 224 224 223 224 226 228 230 232 233 233 233 229 222 220 222 224 221 216 214 215 214 213 215 219
207 209 206 208 209 210 217 227 230 231 232 231 229 229 230 228 224 224 225 226 222 216 210 206 203 204 207 210 212 213 213 215 216 218 220 222 223 223 223 224 225 225 224 224 227 229 231 233 233 233 231 226 224 223 222 221 218 214 214 216 216 215 219
179 189 194 196 199 205 217 229 236 238 233 228 226 229 235 233 229 227 228 229 223 214 210 207 205 207 209 210 211 212 213 215 216 219 221 222 223 224 224 225 226 227 225 224 226 228 230 232 232 232 232 230 227 225 221 220 218 214 213 215 217 218 218
158 173 187 194 196 200 206 215 224 230 230 226 226 231 235 235 231 227 228 230 221 212 209 208 207 208 210 211 211 211 212 213 214 218 220 222 224 224 226 227 227 228 227 225 226 228 230 232 230 229 229 230 229 227 224 220 218 215 213 214 218 220 221
143 151 172 186 194 197 202 207 212 216 219 219 221 226 230 233 231 225 225 227 220 213 211 209 208 209 211 212 209 208 210 211 211 215 219 221 224 225 227 229 229 229 229 227 227 228 230 232 230 226 224 226 228 229 227 222 219 216 214 214 217 221 224
129 125 139 162 184 194 199 204 208 211 215 216 216 220 222 226 226 223 224 226 222 221 219 214 211 212 212 212 209 208 209 209 209 212 217 220 223 225 228 230 230 231 232 230 228 228 230 232 232 227 222 223 225 227 227 225 222 219 216 215 217 221 225
124 118 118 135 167 187 196 203 206 209 212 213 214 218 221 222 222 221 223 224 224 226 225 224 222 221 219 216 213 211 210 209 209 211 215 219 221 224 228 230 232 232 233 232 230 229 230 232 234 231 224 222 224 226 227 227 226 224 220 218 219 222 226
125 119 115 122 149 176 191 200 204 207 208 210 213 216 218 219 221 224 227 228 230 230 228 227 226 225 225 222 216 213 212 211 211 212 215 218 220 223 226 229 232 233 235 235 233 231 231 232 235 235 229 223 222 225 227 226 228 227 225 223 222 224 226
140 127 120 121 138 160 179 195 203 205 205 208 213 216 217 217 220 227 233 234 237 238 236 234 231 227 225 224 220 215 213 213 213 213 216 218 221 223 225 228 232 234 236 237 235 233 232 231 233 235 235 229 223 224 226 225 226 227 227 226 226 226 228
169 150 138 132 134 142 146 167 196 206 208 208 212 216 217 216 217 223 229 232 236 238 238 240 240 233 225 223 222 218 213 213 214 214 216 218 219 223 225 227 231 233 235 237 236 236 236 234 233 234 237 236 230 225 225 224 225 226 227 227 226 226 229
201 193 176 164 156 152 147 147 167 197 210 211 213 217 219 219 217 218 221 225 232 235 236 239 239 230 221 220 222 220 215 212 213 215 216 217 219 221 224 226 229 231 234 236 237 238 237 236 235 234 235 238 237 233 228 224 224 225 228 229 225 224 229
232 237 229 213 202 182 167 169 171 176 196 208 213 218 221 223 222 219 218 221 226 230 233 234 229 221 219 221 222 220 217 213 213 215 217 218 219 221 222 225 227 228 232 234 236 238 237 236 237 235 235 238 240 239 235 228 224 223 227 230 229 228 230
244 255 256 242 235 227 213 206 198 193 195 202 212 219 221 222 222 223 223 222 223 224 228 229 224 218 219 222 221 219 219 217 215 216 218 220 222 222 222 223 225 227 230 233 236 238 239 239 239 238 237 237 239 242 242 237 231 226 225 227 229 232 234
245 256 262 256 250 245 235 229 226 215 207 206 211 219 223 222 220 222 223 224 224 224 222 221 220 218 220 223 223 222 221 220 219 218 220 222 225 226 224 224 225 227 230 233 236 238 239 240 240 240 239 237 237 240 242 243 241 235 230 226 226 229 232
246 252 259 259 257 252 243 239 236 229 223 216 212 216 223 224 220 218 220 224 227 228 223 218 218 219 221 224 227 227 225 223 222 222 222 223 226 228 227 226 225 226 228 231 234 237 238 239 240 241 241 239 237 237 239 241 243 242 238 234 231 230 232
255 256 258 259 260 254 246 246 251 245 236 229 221 219 222 225 222 219 220 224 229 231 230 224 220 220 223 226 229 230 229 226 224 224 225 225 228 230 230 229 227 227 228 230 233 236 238 239 240 240 241 239 238 237 238 239 242 243 243 240 239 237 237
260 263 262 261 263 258 248 246 252 253 248 241 233 227 225 227 227 224 222 224 226 230 232 230 224 221 223 226 228 229 230 229 227 227 228 228 229 231 232 231 230 229 229 230 232 234 238 240 241 241 241 240 238 238 238 238 239 241 242 242 242 242 242
261 264 264 262 264 264 256 250 251 254 253 248 241 236 232 230 229 228 225 223 223 225 230 231 227 224 223 225 227 229 231 232 230 229 230 230 230 231 233 233 232 231 231 230 231 233 236 240 241 240 240 240 238 237 238 237 237 239 239 240 241 242 244
265 264 264 262 264 267 263 257 256 258 257 251 244 241 239 235 231 229 227 224 222 223 226 228 226 224 222 223 226 228 230 231 232 232 232 231 230 231 234 234 233 233 232 231 231 233 235 238 240 240 239 239 238 237 236 236 237 238 238 239 241 243 246
267 267 263 261 263 267 266 262 261 259 256 253 249 243 242 240 235 230 228 226 223 223 225 226 224 222 221 222 224 227 229 231 232 233 232 231 231 231 234 235 234 234 234 232 230 232 235 237 238 240 241 241 239 237 236 236 237 238 238 239 241 243 245
264 264 263 261 263 267 267 266 264 260 255 253 252 246 242 241 238 232 228 226 224 224 226 228 226 223 222 222 222 224 227 229 231 232 232 231 231 232 233 234 234 235 235 233 230 231 234 236 237 239 241 242 241 239 236 236 237 237 238 239 239 240 241
256 256 259 261 262 263 263 264 265 263 258 254 252 247 242 240 239 235 229 226 225 225 227 229 229 227 226 224 223 224 226 227 229 232 233 232 231 231 232 233 233 234 235 233 230 231 233 234 235 237 238 240 241 238 235 235 236 236 236 236 237 237 237
249 248 251 256 257 256 256 259 261 262 260 256 251 246 242 239 238 235 231 228 227 227 228 230 232 233 232 229 227 227 229 231 233 235 236 235 232 231 232 233 234 236 237 235 231 230 232 235 236 238 239 240 240 239 237 236 237 236 235 236 236 236 236
244 242 244 250 254 253 251 253 255 256 256 254 250 245 241 240 238 235 232 230 229 229 230 231 233 235 236 234 233 232 234 236 239 239 240 239 235 231 231 234 235 237 238 236 232 230 232 237 240 244 245 244 243 242 241 241 241 240 237 236 234 233 232
244 243 243 247 252 254 250 250 252 252 250 249 247 244 241 240 238 235 233 231 230 230 230 231 233 236 236 235 236 238 240 242 244 243 242 239 235 232 231 232 234 235 237 235 231 228 230 233 236 239 242 242 242 242 242 243 244 243 235 224 219 218 219
245 248 247 248 252 253 248 248 250 249 247 246 244 242 241 241 239 235 231 230 230 230 230 231 232 234 235 235 236 239 242 244 245 245 244 240 236 233 231 232 233 233 234 234 230 227 227 230 231 233 234 235 236 237 237 237 237 235 230 221 217 218 221
244 249 251 252 255 253 246 244 247 250 250 250 247 244 240 238 237 235 231 229 230 230 231 230 229 229 232 234 235 238 240 241 242 244 245 245 242 237 233 231 231 231 232 231 227 225 226 228 229 229 229 229 231 233 233 233 233 234 235 236 235 236 237
Height
3144 3146 3148 3150 3152 3154 3156 3158 3160 3162 3165 3167 3169 3171 3173 3175 3178 3181 3184 3187 3190 3192 3195 3197 3199 3201 3203 3206 3208 3210 3212 3213 3215 3217 3219 3221 3223 3225 3227 3229 3230 3232 3233 3235 3236 3237 3238 3239 3240 3241 3241 3242 3243 3244 3245 3246 3247 3247 3248 3249 3249 3250 3251
3141 3144 3146 3147 3149 3151 3153 3156 3158 3160 3162 3164 3167 3169 3170 3173 3175 3178 3182 3185 3187 3190 3192 3195 3197 3199 3202 3204 3206 3208 3210 3212 3213 3215 3217 3219 3221 3223 3225 3227 3229 3230 3232 3233 3235 3236 3237 3238 3239 3240 3241 3241 3242 3243 3244 3245 3246 3247 3247 3248 3249 3250 3250
3138 3140 3143 3144 3146 3149 3151 3154 3156 3158 3160 3162 3164 3167 3168 3170 3173 3177 3180 3183 3185 3188 3190 3192 3195 3197 3200 3202 3204 3206 3208 3210 3211 3213 3215 3217 3220 3222 3223 3225 3227 3229 3230 3231 3233 3234 3235 3237 3238 3239 3240 3240 3241 3242 3243 3244 3245 3246 3247 3247 3248 3249 3250
3134 3136 3139 3141 3143 3147 3149 3152 3154 3155 3158 3160 3162 3165 3167 3169 3172 3175 3178 3181 3183 3185 3187 3190 3192 3195 3197 3199 3201 3204 3206 3207 3209 3211 3213 3215 3218 3220 3222 3223 3225 3226 3228 3229 3231 3232 3234 3235 3236 3237 3238 3239 3240 3241 3242 3243 3244 3245 3246 3246 3247 3248 3249
3131 3134 3136 3139 3141 3144 3147 3149 3151 3153 3155 3158 3161 3163 3166 3168 3170 3173 3176 3178 3181 3183 3185 3188 3191 3193 3195 3197 3199 3201 3203 3205 3207 3209 3211 3213 3216 3217 3219 3221 3223 3224 3226 3227 3229 3230 3232 3233 3234 3236 3237 3238 3239 3240 3241 3242 3243 3244 3244 3245 3246 3247 3248
3129 3132 3134 3137 3139 3141 3144 3147 3149 3151 3154 3156 3159 3161 3164 3166 3168 3170 3173 3175 3178 3180 3182 3185 3188 3190 3192 3194 3196 3198 3201 3203 3205 3207 3209 3211 3213 3215 3217 3219 3221 3223 3224 3225 3227 3228 3230 3231 3232 3234 3235 3236 3237 3238 3239 3240 3241 3242 3243 3244 3245 3246 3246
3127 3130 3132 3135 3138 3140 3142 3145 3147 3149 3152 3155 3158 3160 3162 3164 3166 3168 3170 3172 3175 3177 3179 3181 3184 3187 3189 3191 3193 3195 3198 3200 3202 3205 3207 3209 3210 3212 3215 3217 3219 3221 3222 3223 3225 3226 3227 3229 3230 3232 3233 3234 3235 3237 3238 3239 3240 3241 3242 3242 3243 3244 3245
3124 3127 3130 3133 3135 3138 3140 3143 3145 3148 3150 3153 3155 3157 3159 3161 3163 3166 3168 3170 3172 3174 3176 3178 3181 3184 3187 3189 3190 3192 3195 3197 3200 3202 3204 3206 3208 3210 3212 3214 3216 3218 3220 3221 3222 3224 3225 3226 3228 3230 3231 3232 3233 3235 3236 3237 3238 3239 3240 3241 3242 3243 3244
3120 3124 3128 3131 3133 3136 3139 3141 3143 3146 3148 3151 3153 3155 3157 3159 3161 3163 3166 3168 3170 3172 3174 3176 3179 3182 3185 3186 3187 3189 3192 3195 3197 3199 3201 3203 3205 3207 3209 3211 3214 3216 3217 3219 3220 3221 3222 3224 3226 3227 3229 3230 3231 3232 3234 3235 3236 3237 3238 3239 3240 3241 3242
3117 3121 3126 3129 3131 3134 3138 3139 3141 3144 3146 3148 3150 3152 3155 3157 3159 3161 3163 3166 3168 3170 3172 3174 3176 3179 3182 3184 3185 3187 3189 3191 3194 3196 3198 3200 3202 3204 3206 3209 3211 3213 3214 3216 3218 3219 3220 3222 3223 3224 3226 3227 3228 3230 3231 3233 3234 3235 3236 3237 3238 3239 3240
3114 3118 3123 3127 3129 3133 3136 3137 3139 3142 3144 3146 3148 3150 3153 3155 3157 3159 3161 3163 3166 3168 3171 3172 3173 3175 3178 3181 3182 3183 3185 3188 3190 3193 3195 3197 3199 3201 3204 3206 3208 3210 3212 3213 3215 3216 3217 3219 3220 3222 3223 3225 3226 3227 3229 3230 3232 3233 3234 3236 3236 3237 3238
3116 3118 3120 3124 3127 3130 3133 3135 3138 3140 3143 3145 3147 3149 3152 3154 3156 3158 3159 3161 3163 3166 3168 3170 3171 3172 3175 3178 3179 3180 3182 3184 3186 3189 3192 3194 3197 3199 3201 3203 3205 3207 3208 3210 3212 3213 3215 3216 3217 3219 3220 3222 3224 3225 3227 3228 3230 3231 3232 3233 3234 3235 3236
3115 3116 3117 3120 3124 3127 3131 3134 3136 3139 3141 3144 3146 3148 3150 3152 3154 3156 3157 3159 3161 3163 3165 3167 3168 3170 3172 3174 3176 3178 3179 3181 3183 3186 3189 3192 3194 3197 3199 3200 3202 3204 3206 3207 3209 3210 3211 3213 3215 3216 3218 3220 3221 3222 3224 3225 3227 3228 3230 3231 3232 3233 3233
3110 3112 3115 3118 3121 3124 3129 3133 3135 3138 3140 3142 3144 3147 3149 3150 3152 3154 3156 3157 3159 3160 3162 3164 3165 3167 3169 3171 3173 3175 3176 3178 3180 3183 3186 3189 3192 3194 3196 3198 3199 3201 3203 3205 3206 3207 3208 3210 3212 3214 3215 3217 3218 3219 3221 3222 3223 3225 3227 3228 3229 3230 3231
3109 3111 3115 3117 3119 3124 3129 3131 3133 3135 3138 3141 3143 3145 3147 3148 3150 3152 3153 3155 3157 3158 3160 3161 3163 3165 3167 3168 3170 3173 3174 3176 3178 3181 3183 3186 3189 3191 3193 3195 3197 3198 3200 3201 3203 3204 3205 3207 3209 3211 3212 3214 3215 3217 3218 3219 3220 3222 3223 3225 3226 3227 3228
3108 3111 3114 3116 3118 3122 3125 3127 3129 3132 3134 3137 3140 3142 3144 3145 3147 3149 3151 3153 3155 3157 3158 3159 3161 3163 3164 3166 3168 3170 3173 3174 3176 3178 3181 3183 3185 3188 3190 3192 3194 3195 3197 3198 3200 3201 3203 3204 3205 3207 3209 3211 3212 3213 3214 3215 3217 3219 3221 3222 3223 3224 3225
3108 3110 3112 3114 3116 3118 3120 3123 3126 3129 3132 3135 3136 3138 3140 3141 3144 3146 3149 3151 3154 3156 3158 3159 3160 3161 3162 3164 3167 3169 3170 3172 3173 3175 3178 3180 3183 3185 3187 3189 3191 3193 3194 3196 3197 3199 3200 3201 3202 3204 3206 3207 3209 3210 3211 3212 3214 3216 3218 3219 3221 3221 3222
3107 3109 3110 3112 3114 3116 3119 3121 3124 3127 3129 3131 3133 3135 3137 3138 3141 3144 3146 3149 3151 3153 3155 3156 3159 3161 3163 3164 3165 3167 3169 3170 3171 3173 3175 3178 3180 3183 3185 3187 3188 3190 3191 3192 3194 3196 3197 3198 3199 3201 3203 3204 3205 3207 3208 3210 3211 3213 3215 3216 3218 3219 3219
3106 3108 3110 3111 3113 3115 3117 3119 3121 3123 3125 3127 3129 3131 3133 3136 3139 3142 3144 3146 3148 3149 3150 3152 3154 3157 3160 3163 3164 3165 3167 3168 3169 3171 3173 3175 3178 3180 3182 3184 3185 3186 3188 3189 3192 3193 3194 3195 3196 3197 3199 3201 3203 3204 3205 3207 3208 3210 3212 3214 3215 3216 3217
3105 3107 3109 3111 3113 3114 3116 3118 3119 3119 3120 3123 3125 3127 3130 3134 3138 3140 3142 3144 3146 3148 3151 3153 3154 3154 3156 3159 3162 3164 3165 3166 3167 3168 3171 3173 3175 3177 3179 3180 3182 3184 3185 3187 3188 3190 3191 3192 3193 3194 3196 3198 3200 3201 3202 3204 3206 3207 3209 3211 3212 3213 3214
3104 3105 3107 3110 3112 3114 3116 3117 3118 3118 3118 3119 3121 3125 3128 3131 3134 3136 3138 3141 3144 3146 3149 3153 3155 3157 3157 3157 3158 3160 3162 3163 3164 3166 3168 3170 3172 3174 3176 3177 3179 3181 3182 3184 3185 3187 3188 3190 3191 3192 3193 3194 3196 3198 3199 3201 3203 3204 3206 3207 3209 3210 3211
3103 3104 3106 3108 3110 3112 3115 3116 3118 3118 3118 3118 3120 3122 3125 3127 3128 3130 3133 3138 3141 3144 3146 3148 3150 3152 3154 3153 3154 3156 3157 3159 3161 3163 3165 3167 3169 3171 3172 3174 3176 3178 3179 3181 3182 3183 3185 3186 3188 3189 3190 3191 3192 3194 3196 3198 3200 3201 3202 3204 3206 3207 3208
3103 3103 3104 3106 3108 3109 3111 3113 3115 3116 3116 3117 3119 3120 3122 3124 3126 3128 3130 3134 3137 3139 3142 3144 3145 3147 3148 3149 3150 3151 3153 3156 3158 3160 3162 3164 3165 3167 3169 3171 3173 3175 3176 3177 3179 3180 3181 3183 3184 3186 3187 3188 3189 3190 3193 3195 3197 3198 3200 3201 3203 3204 3205
3101 3102 3103 3104 3105 3107 3108 3110 3112 3114 3115 3116 3117 3118 3120 3122 3124 3127 3128 3130 3133 3135 3137 3139 3141 3142 3144 3145 3146 3148 3150 3152 3154 3156 3158 3160 3162 3164 3166 3168 3170 3171 3173 3174 3175 3177 3178 3180 3181 3183 3184 3185 3186 3187 3189 3191 3193 3195 3197 3198 3199 3200 3201
3100 3101 3101 3101 3102 3104 3106 3108 3109 3111 3113 3114 3115 3116 3117 3118 3121 3125 3127 3128 3129 3131 3132 3134 3136 3138 3139 3141 3142 3144 3146 3149 3151 3153 3155 3157 3159 3161 3163 3165 3167 3168 3170 3171 3172 3174 3175 3177 3178 3179 3180 3182 3183 3184 3186 3187 3189 3191 3193 3195 3196 3197 3198
3098 3099 3099 3099 3100 3101 3102 3104 3106 3108 3110 3111 3113 3114 3115 3116 3119 3122 3124 3125 3126 3127 3128 3130 3132 3134 3136 3137 3139 3141 3143 3145 3147 3150 3152 3154 3156 3157 3159 3162 3163 3165 3166 3168 3169 3170 3172 3173 3174 3176 3177 3178 3180 3181 3182 3184 3185 3187 3189 3191 3192 3194 3195
3095 3095 3095 3096 3097 3098 3099 3100 3102 3104 3106 3108 3109 3111 3112 3113 3115 3118 3120 3121 3122 3123 3125 3127 3128 3130 3132 3134 3135 3137 3138 3140 3143 3146 3148 3151 3152 3154 3156 3158 3160 3162 3163 3164 3166 3167 3168 3169 3170 3172 3173 3175 3176 3177 3179 3180 3182 3183 3185 3186 3188 3189 3190
3092 3092 3092 3093 3094 3095 3096 3097 3099 3101 3103 3105 3106 3107 3108 3109 3111 3113 3115 3116 3117 3120 3122 3123 3124 3125 3128 3129 3131 3132 3134 3136 3139 3141 3144 3146 3148 3150 3152 3154 3156 3158 3159 3161 3162 3163 3164 3165 3166 3168 3170 3171 3172 3173 3175 3177 3178 3180 3181 3183 3184 3185 3186
3090 3090 3090 3091 3092 3092 3094 3095 3097 3098 3100 3102 3103 3104 3105 3105 3106 3108 3109 3111 3114 3117 3118 3119 3120 3121 3123 3124 3126 3128 3130 3132 3134 3137 3139 3142 3144 3146 3148 3150 3152 3154 3155 3157 3158 3160 3161 3161 3162 3164 3166 3167 3168 3169 3171 3173 3174 3176 3178 3179 3181 3182 3182
3087 3089 3088 3088 3089 3090 3091 3092 3094 3095 3097 3098 3100 3101 3101 3101 3102 3104 3105 3108 3111 3112 3113 3114 3116 3117 3118 3120 3121 3123 3125 3127 3130 3132 3135 3137 3140 3142 3143 3145 3147 3149 3151 3153 3155 3156 3157 3157 3158 3159 3161 3162 3164 3165 3166 3168 3170 3172 3174 3176 3177 3178 3179
3084 3086 3085 3085 3085 3086 3087 3088 3090 3091 3093 3095 3096 3097 3098 3098 3098 3100 3102 3105 3107 3107 3108 3110 3111 3112 3113 3115 3117 3119 3121 3123 3125 3128 3130 3133 3135 3137 3139 3140 3142 3144 3146 3149 3150 3151 3153 3154 3154 3155 3157 3158 3160 3161 3163 3164 3166 3168 3171 3172 3174 3175 3176
3080 3082 3082 3081 3082 3083 3084 3085 3086 3087 3088 3090 3092 3093 3094 3095 3095 3096 3099 3101 3102 3102 3103 3105 3106 3108 3109 3111 3113 3115 3117 3119 3121 3123 3126 3128 3130 3132 3134 3136 3137 3139 3142 3145 3147 3148 3149 3150 3151 3152 3153 3154 3156 3158 3159 3160 3162 3164 3166 3168 3170 3171 3173
3076 3078 3078 3078 3079 3080 3080 3081 3082 3082 3084 3085 3087 3088 3090 3091 3092 3093 3094 3096 3097 3098 3099 3100 3102 3104 3105 3107 3109 3111 3113 3115 3116 3118 3121 3123 3125 3127 3129 3131 3133 3135 3137 3140 3143 3144 3146 3147 3148 3149 3150 3151 3152 3154 3156 3157 3158 3160 3162 3164 3166 3167 3169
3071 3073 3074 3075 3076 3076 3076 3077 3077 3078 3079 3080 3082 3083 3085 3086 3087 3089 3090 3091 3092 3094 3095 3096 3098 3100 3102 3103 3105 3107 3108 3110 3112 3114 3116 3118 3120 3123 3125 3127 3129 3130 3133 3135 3138 3140 3142 3144 3145 3147 3148 3149 3150 3151 3152 3153 3154 3156 3158 3160 3162 3164 3165
3067 3069 3070 3071 3072 3072 3072 3073 3073 3073 3075 3076 3077 3078 3080 3081 3083 3084 3085 3086 3088 3089 3090 3091 3094 3096 3098 3099 3101 3102 3104 3106 3107 3109 3111 3114 3116 3118 3120 3122 3124 3126 3128 3131 3134 3137 3139 3141 3143 3145 3146 3147 3148 3149 3149 3150 3151 3153 3155 3157 3159 3161 3162
3063 3064 3065 3066 3068 3068 3069 3069 3069 3070 3071 3072 3073 3074 3075 3077 3078 3079 3080 3082 3083 3084 3085 3087 3090 3092 3093 3094 3096 3098 3100 3102 3103 3105 3107 3109 3111 3113 3115 3116 3119 3121 3124 3126 3129 3133 3136 3138 3141 3143 3144 3145 3146 3147 3148 3149 3150 3152 3153 3155 3156 3157 3158
3059 3060 3061 3062 3063 3065 3066 3066 3066 3066 3066 3067 3068 3069 3071 3072 3072 3073 3075 3076 3077 3078 3080 3082 3085 3087 3088 3090 3092 3094 3096 3098 3099 3100 3101 3103 3105 3107 3109 3111 3114 3117 3119 3122 3125 3129 3132 3135 3137 3139 3141 3142 3144 3145 3147 3148 3149 3150 3151 3152 3153 3155 3156
3055 3056 3057 3058 3059 3061 3062 3063 3063 3063 3062 3062 3062 3064 3066 3067 3067 3068 3070 3071 3072 3074 3075 3077 3079 3082 3084 3086 3087 3089 3090 3092 3093 3094 3095 3097 3098 3100 3102 3105 3109 3112 3115 3117 3121 3125 3128 3131 3133 3135 3137 3139 3141 3142 3144 3146 3147 3147 3148 3149 3151 3152 3153